| time (UTC) | temp F | wind direction | speed MPH | gust MPH | rain 1hr in | rain 24hr in | rain mn in | humidity % | barometer mb |
| 20260831012515 | 94 | 0 | 1.0 | 4.0 | 0.00 | 0.00 | 0.00 | 22 | 1013.5 |
| 20260831011557 | 94 | 0 | 2.0 | 6.0 | 0.00 | 0.00 | 0.00 | 22 | 1013.4 |
| 20260831010637 | 95 | 0 | 3.0 | 10.0 | 0.00 | 0.00 | 0.00 | 21 | 1013.1 |
| 20260831005557 | 96 | 0 | 3.0 | 6.0 | 0.00 | 0.00 | 0.00 | 21 | 1013.1 |
| 20260831002516 | 98 | 0 | 3.0 | 5.0 | 0.00 | 0.00 | 0.00 | 20 | 1013.6 |
| 20260831001517 | 99 | 0 | 3.0 | 10.0 | 0.00 | 0.00 | 0.00 | 19 | 1013.7 |
| 20260831000516 | 99 | 0 | 3.0 | 9.0 | 0.00 | 0.00 | 0.00 | 20 | 1013.6 |
| 20260830234516 | 99 | 0 | 7.0 | 11.0 | 0.00 | 0.00 | 0.00 | 18 | 1014.0 |
| 20260830233516 | 100 | 0 | 6.0 | 11.0 | 0.00 | 0.00 | 0.00 | 18 | 1014.2 |
| 20260830232516 | 100 | 0 | 6.0 | 14.0 | 0.00 | 0.00 | 0.00 | 18 | 1014.3 |
| 20260830231516 | 100 | 0 | 5.0 | 14.0 | 0.00 | 0.00 | 0.00 | 18 | 1014.4 |
| 20260830230516 | 100 | 0 | 4.0 | 12.0 | 0.00 | 0.00 | 0.00 | 18 | 1014.6 |
| 20260830225556 | 100 | 0 | 4.0 | 12.0 | 0.00 | 0.00 | 0.00 | 18 | 1014.5 |
| 20260830224516 | 101 | 0 | 8.0 | 15.0 | 0.00 | 0.00 | 0.00 | 18 | 1014.8 |
| 20260830223516 | 99 | 0 | 3.0 | 13.0 | 0.00 | 0.00 | 0.00 | 19 | 1014.5 |
| 20260830222516 | 100 | 0 | 7.0 | 15.0 | 0.00 | 0.00 | 0.00 | 19 | 1015.0 |
| 20260830221556 | 101 | 0 | 10.0 | 18.0 | 0.00 | 0.00 | 0.00 | 18 | 1015.1 |
| 20260830220516 | 101 | 0 | 6.0 | 16.0 | 0.00 | 0.00 | 0.00 | 17 | 1015.2 |
| 20260830215556 | 101 | 0 | 9.0 | 16.0 | 0.00 | 0.00 | 0.00 | 18 | 1015.3 |
| 20260830213556 | 101 | 0 | 6.0 | 15.0 | 0.00 | 0.00 | 0.00 | 19 | 1015.5 |
| 20260830212636 | 101 | 0 | 10.0 | 18.0 | 0.00 | 0.00 | 0.00 | 18 | 1015.6 |
| 20260830210556 | 101 | 0 | 5.0 | 15.0 | 0.00 | 0.00 | 0.00 | 19 | 1015.7 |
| 20260830205516 | 100 | 0 | 5.0 | 17.0 | 0.00 | 0.00 | 0.00 | 20 | 1015.9 |
| 20260830203516 | 101 | 0 | 6.0 | 14.0 | 0.00 | 0.00 | 0.00 | 19 | 1016.6 |
| 20260830202516 | 101 | 0 | 5.0 | 17.0 | 0.00 | 0.00 | 0.00 | 19 | 1016.6 |
| 20260830201516 | 101 | 0 | 6.0 | 12.0 | 0.00 | 0.00 | 0.00 | 19 | 1016.7 |
| 20260830200516 | 100 | 0 | 4.0 | 13.0 | 0.00 | 0.00 | 0.00 | 20 | 1016.8 |
| 20260830195556 | 100 | 0 | 5.0 | 13.0 | 0.00 | 0.00 | 0.00 | 20 | 1016.8 |
| 20260830194516 | 99 | 0 | 3.0 | 13.0 | 0.00 | 0.00 | 0.00 | 22 | 1016.7 |
| 20260830193516 | 99 | 0 | 2.0 | 8.0 | 0.00 | 0.00 | 0.00 | 23 | 1016.9 |
| 20260830192556 | 98 | 0 | 5.0 | 13.0 | 0.00 | 0.00 | 0.00 | 22 | 1017.1 |
| 20260830191556 | 98 | 0 | 3.0 | 9.0 | 0.00 | 0.00 | 0.00 | 23 | 1017.2 |
| 20260830184516 | 97 | 0 | 3.0 | 11.0 | 0.00 | 0.00 | 0.00 | 24 | 1017.9 |
| 20260830183556 | 97 | 0 | 3.0 | 14.0 | 0.00 | 0.00 | 0.00 | 23 | 1018.1 |
| 20260830182516 | 96 | 0 | 4.0 | 10.0 | 0.00 | 0.00 | 0.00 | 25 | 1018.4 |
| 20260830181556 | 95 | 0 | 4.0 | 14.0 | 0.00 | 0.00 | 0.00 | 25 | 1018.4 |
| 20260830180556 | 95 | 0 | 7.0 | 14.0 | 0.00 | 0.00 | 0.00 | 26 | 1018.6 |
| 20260830175516 | 94 | 0 | 4.0 | 10.0 | 0.00 | 0.00 | 0.00 | 27 | 1018.6 |
| 20260830174516 | 94 | 0 | 5.0 | 14.0 | 0.00 | 0.00 | 0.00 | 27 | 1018.8 |
| 20260830173516 | 93 | 0 | 2.0 | 10.0 | 0.00 | 0.00 | 0.00 | 28 | 1018.9 |
| 20260830172556 | 93 | 0 | 4.0 | 15.0 | 0.00 | 0.00 | 0.00 | 28 | 1019.0 |
| 20260830170556 | 92 | 0 | 2.0 | 9.0 | 0.00 | 0.00 | 0.00 | 29 | 1019.2 |
| 20260830163556 | 89 | 0 | 3.0 | 8.0 | 0.00 | 0.00 | 0.00 | 31 | 1019.1 |
| 20260830161515 | 88 | 0 | 4.0 | 8.0 | 0.00 | 0.00 | 0.00 | 33 | 1018.9 |
| 20260830160636 | 88 | 0 | 3.0 | 8.0 | 0.00 | 0.00 | 0.00 | 34 | 1018.9 |
| 20260830155555 | 86 | 0 | 2.0 | 6.0 | 0.00 | 0.00 | 0.00 | 35 | 1018.9 |
| 20260830154555 | 86 | 0 | 3.0 | 9.0 | 0.00 | 0.00 | 0.00 | 36 | 1019.1 |
| 20260830153555 | 85 | 0 | 2.0 | 6.0 | 0.00 | 0.00 | 0.00 | 37 | 1018.7 |
| 20260830152515 | 85 | 0 | 3.0 | 6.0 | 0.00 | 0.00 | 0.00 | 37 | 1018.7 |
| 20260830151515 | 84 | 0 | 2.0 | 5.0 | 0.00 | 0.00 | 0.00 | 37 | 1018.6 |
| 20260830150555 | 83 | 0 | 1.0 | 5.0 | 0.00 | 0.00 | 0.00 | 39 | 1018.6 |
| 20260830145515 | 82 | 0 | 3.0 | 6.0 | 0.00 | 0.00 | 0.00 | 40 | 1018.4 |
| 20260830144515 | 81 | 0 | 2.0 | 5.0 | 0.00 | 0.00 | 0.00 | 40 | 1018.4 |
| 20260830143515 | 81 | 0 | 4.0 | 9.0 | 0.00 | 0.00 | 0.00 | 42 | 1018.2 |
| 20260830142555 | 80 | 0 | 3.0 | 6.0 | 0.00 | 0.00 | 0.00 | 41 | 1018.4 |
| 20260830141555 | 80 | 0 | 2.0 | 5.0 | 0.00 | 0.00 | 0.00 | 43 | 1018.4 |
| 20260830140515 | 79 | 0 | 4.0 | 8.0 | 0.00 | 0.00 | 0.00 | 42 | 1018.2 |
| 20260830135555 | 78 | 0 | 3.0 | 8.0 | 0.00 | 0.00 | 0.00 | 43 | 1018.4 |
| 20260830133515 | 77 | 0 | 4.0 | 8.0 | 0.00 | 0.00 | 0.00 | 44 | 1018.3 |
| 20260830131635 | 76 | 0 | 4.0 | 10.0 | 0.00 | 0.00 | 0.00 | 46 | 1018.2 |
| 20260830130635 | 74 | 0 | 3.0 | 8.0 | 0.00 | 0.00 | 0.00 | 48 | 1017.9 |
| 20260830125515 | 72 | 0 | 1.0 | 3.0 | 0.00 | 0.00 | 0.00 | 50 | 1017.7 |
| 20260830124515 | 73 | 0 | 1.0 | 2.0 | 0.00 | 0.00 | 0.00 | 49 | 1017.7 |
| 20260830123515 | 73 | 0 | 1.0 | 2.0 | 0.00 | 0.00 | 0.00 | 47 | 1017.8 |
| 20260830122515 | 74 | 0 | 2.0 | 4.0 | 0.00 | 0.00 | 0.00 | 47 | 1017.8 |
| 20260830121515 | 74 | 0 | 2.0 | 4.0 | 0.00 | 0.00 | 0.00 | 47 | 1017.8 |
| 20260830120555 | 73 | 0 | 2.0 | 5.0 | 0.00 | 0.00 | 0.00 | 48 | 1017.7 |
| 20260830115515 | 73 | 0 | 1.0 | 2.0 | 0.00 | 0.00 | 0.00 | 47 | 1017.9 |
| 20260830114635 | 75 | 0 | 1.0 | 2.0 | 0.00 | 0.00 | 0.00 | 47 | 1018.0 |
| 20260830113515 | 76 | 0 | 0.0 | 3.0 | 0.00 | 0.00 | 0.00 | 45 | 1018.2 |
| 20260830112515 | 76 | 0.0 | 2.0 | 0.00 | 0.00 | 0.00 | 44 | 1018.3 | |
| 20260830111515 | 77 | 0 | 1.0 | 3.0 | 0.00 | 0.00 | 0.00 | 43 | 1018.4 |
| 20260830110515 | 78 | 0 | 2.0 | 4.0 | 0.00 | 0.00 | 0.00 | 42 | 1018.4 |
| 20260830105515 | 79 | 0 | 2.0 | 4.0 | 0.00 | 0.00 | 0.00 | 41 | 1018.3 |
| 20260830104635 | 79 | 0 | 2.0 | 11.0 | 0.00 | 0.00 | 0.00 | 40 | 1018.3 |
| 20260830102555 | 80 | 0 | 4.0 | 10.0 | 0.00 | 0.00 | 0.00 | 40 | 1018.3 |
| 20260830101557 | 80 | 0 | 3.0 | 11.0 | 0.00 | 0.00 | 0.00 | 39 | 1018.5 |
| 20260830100637 | 81 | 0 | 5.0 | 11.0 | 0.00 | 0.00 | 0.00 | 38 | 1018.7 |
| 20260830094517 | 82 | 0 | 11.0 | 20.0 | 0.00 | 0.00 | 0.00 | 38 | 1019.0 |
| 20260830093517 | 82 | 0 | 9.0 | 18.0 | 0.00 | 0.00 | 0.00 | 38 | 1018.9 |
| 20260830092516 | 82 | 0 | 7.0 | 16.0 | 0.00 | 0.00 | 0.00 | 38 | 1018.8 |
| 20260830091557 | 82 | 0 | 9.0 | 18.0 | 0.00 | 0.00 | 0.00 | 37 | 1018.6 |
| 20260830090516 | 82 | 0 | 7.0 | 17.0 | 0.00 | 0.00 | 0.00 | 37 | 1018.5 |
| 20260830085516 | 82 | 0 | 7.0 | 17.0 | 0.00 | 0.00 | 0.00 | 37 | 1018.5 |
| 20260830084557 | 83 | 0 | 7.0 | 14.0 | 0.00 | 0.00 | 0.00 | 37 | 1018.6 |
| 20260830083637 | 83 | 0 | 8.0 | 16.0 | 0.00 | 0.00 | 0.00 | 37 | 1018.9 |
| 20260830082516 | 83 | 0 | 5.0 | 11.0 | 0.00 | 0.00 | 0.00 | 37 | 1018.9 |
| 20260830081516 | 83 | 0 | 4.0 | 13.0 | 0.00 | 0.00 | 0.00 | 36 | 1018.8 |
| 20260830080556 | 84 | 0 | 5.0 | 14.0 | 0.00 | 0.00 | 0.00 | 36 | 1019.2 |
| 20260830074556 | 84 | 0 | 3.0 | 11.0 | 0.00 | 0.00 | 0.00 | 36 | 1019.1 |
| 20260830072517 | 84 | 0 | 4.0 | 12.0 | 0.00 | 0.00 | 0.00 | 35 | 1019.3 |
| 20260830071516 | 85 | 0 | 6.0 | 15.0 | 0.00 | 0.00 | 0.00 | 35 | 1019.4 |
| 20260830070556 | 84 | 0 | 6.0 | 16.0 | 0.00 | 0.00 | 0.00 | 35 | 1019.4 |
| 20260830065556 | 85 | 0 | 5.0 | 10.0 | 0.00 | 0.00 | 0.00 | 35 | 1019.3 |
| 20260830064556 | 85 | 0 | 5.0 | 12.0 | 0.00 | 0.00 | 0.00 | 34 | 1018.8 |
| 20260830063556 | 86 | 0 | 5.0 | 18.0 | 0.00 | 0.00 | 0.00 | 34 | 1019.1 |
| 20260830061516 | 86 | 0 | 6.0 | 17.0 | 0.00 | 0.00 | 0.00 | 33 | 1018.9 |
| 20260830060636 | 86 | 0 | 7.0 | 17.0 | 0.00 | 0.00 | 0.00 | 33 | 1019.0 |
| 20260830055555 | 87 | 0 | 5.0 | 11.0 | 0.00 | 0.00 | 0.00 | 33 | 1018.9 |
| 20260830054555 | 87 | 0 | 7.0 | 17.0 | 0.00 | 0.00 | 0.00 | 32 | 1018.8 |
| 20260830053555 | 87 | 0 | 7.0 | 13.0 | 0.00 | 0.00 | 0.00 | 32 | 1018.6 |
| 20260830052515 | 88 | 0 | 4.0 | 11.0 | 0.00 | 0.00 | 0.00 | 31 | 1018.6 |
| 20260830051555 | 88 | 0 | 4.0 | 9.0 | 0.00 | 0.00 | 0.00 | 31 | 1018.5 |
| 20260830050515 | 89 | 0 | 5.0 | 13.0 | 0.00 | 0.00 | 0.00 | 30 | 1018.3 |
| 20260830045555 | 90 | 0 | 7.0 | 14.0 | 0.00 | 0.00 | 0.00 | 30 | 1018.4 |
| 20260830044555 | 90 | 0 | 7.0 | 13.0 | 0.00 | 0.00 | 0.00 | 29 | 1018.2 |
| 20260830043555 | 90 | 0 | 7.0 | 12.0 | 0.00 | 0.00 | 0.00 | 29 | 1018.1 |
| 20260830042515 | 91 | 0 | 8.0 | 15.0 | 0.00 | 0.00 | 0.00 | 28 | 1018.1 |
| 20260830041515 | 91 | 0 | 7.0 | 14.0 | 0.00 | 0.00 | 0.00 | 28 | 1018.1 |
| 20260830040515 | 91 | 0 | 7.0 | 14.0 | 0.00 | 0.00 | 0.00 | 28 | 1018.1 |
| 20260830035515 | 91 | 0 | 3.0 | 12.0 | 0.00 | 0.00 | 0.00 | 27 | 1017.8 |
| 20260830034515 | 92 | 0 | 4.0 | 11.0 | 0.00 | 0.00 | 0.00 | 27 | 1017.8 |
| 20260830033635 | 92 | 0 | 6.0 | 10.0 | 0.00 | 0.00 | 0.00 | 27 | 1017.4 |
| 20260830032555 | 92 | 0 | 6.0 | 10.0 | 0.00 | 0.00 | 0.00 | 27 | 1017.0 |
| 20260830031515 | 93 | 0 | 5.0 | 14.0 | 0.00 | 0.00 | 0.00 | 26 | 1016.9 |
| 20260830030515 | 93 | 0 | 7.0 | 17.0 | 0.00 | 0.00 | 0.00 | 26 | 1016.6 |
| 20260830025555 | 93 | 0 | 7.0 | 18.0 | 0.00 | 0.00 | 0.00 | 26 | 1016.3 |
| 20260830023635 | 93 | 0 | 7.0 | 13.0 | 0.00 | 0.00 | 0.00 | 25 | 1015.7 |
| 20260830022515 | 92 | 0 | 4.0 | 14.0 | 0.00 | 0.00 | 0.00 | 25 | 1015.2 |
| 20260830021515 | 92 | 0 | 2.0 | 6.0 | 0.00 | 0.00 | 0.00 | 25 | 1015.0 |
| 20260830015555 | 94 | 0 | 2.0 | 5.0 | 0.00 | 0.00 | 0.00 | 24 | 1014.6 |
| 20260830014555 | 94 | 0 | 3.0 | 9.0 | 0.00 | 0.00 | 0.00 | 23 | 1014.2 |
| 20260830013635 | 95 | 0 | 3.0 | 8.0 | 0.00 | 0.00 | 0.00 | 23 | 1014.0 |